Du Bois, PA

6:42 AM EDT on April 25, 2017 (GMT -0400)
Du Bois-Jefferson County

Weather History for KDUJ - September, 2011

Change the Weather History Date:

Saturday, September 24, 2011

  Actual Average Record
Temperature  
Mean Temperature 60 °F 57 °F  
Max Temperature 69 °F 67 °F 85 °F (1970)
Min Temperature 51 °F 47 °F 29 °F (1974)
Degree Days  
Heating Degree Days 5 9  
Month to date heating degree days 122  
Since 1 July heating degree days 184  
Cooling Degree Days 0 0  
Month to date cooling degree days 28  
Year to date cooling degree days 359  
Growing Degree Days 10 (Base 50)    
Moisture  
Dew Point 53 °F    
Average Humidity 82    
Maximum Humidity 100    
Minimum Humidity 61    
Precipitation  
Precipitation 0.00 in 0.11 in 1.12 in (1975)
Month to date precipitation 2.98  
Sea Level Pressure  
Sea Level Pressure 30.07 in    
Wind  
Wind Speed 3 mph (NW)    
Max Wind Speed 8 mph    
Max Gust Speed -    
Visibility 10 miles    
Events      
T = Trace of Precipitation, MM = Missing Value Source: NWS Daily Summary

Daily Weather History Graph

Daily Weather History Graph

Search for Another Location

Airport or City:

Trip Planner

Search our weather history database for the weather conditions in past years. The results will help you decide how hot, cold, wet, or windy it might be!

Date:

Astronomy

Sep. 24, 2011 Rise Set
Actual Time 7:04 AM EDT 7:09 PM EDT
Civil Twilight 6:37 AM EDT 7:37 PM EDT
Nautical Twilight 6:05 AM EDT 8:09 PM EDT
Astronomical Twilight 5:32 AM EDT 8:42 PM EDT
Moon 3:36 AM EDT (9/24) 5:16 PM EDT (9/24)
Length of Visible Light 13h 00m
Length of Day
12h 05m
Waning Crescent, 11% of the Moon is Illuminated
Sep 24
Waning Crescent
Sep 27
New
Oct 3
First Quarter
Oct 11
Full
Oct 19
Last Quarter

Hourly Weather History & Observations

Time (EDT) Temp. Dew Point Humidity Pressure Visibility Wind Dir Wind Speed Gust Speed Precip Events Conditions
12:56 AM 57.0 °F 54.0 °F 89% 29.99 in 10.0 mi WNW 5.8 mph - N/A   Overcast
1:16 AM 57.2 °F 53.6 °F 88% 30.01 in 10.0 mi WNW 8.1 mph - N/A   Overcast
1:44 AM 55.4 °F 53.6 °F 94% 30.01 in 10.0 mi West 4.6 mph - N/A   Overcast
1:56 AM 55.4 °F 53.6 °F 94% 30.02 in 10.0 mi West 5.8 mph - N/A   Overcast
2:56 AM 55.0 °F 53.1 °F 93% 30.01 in 10.0 mi WNW 8.1 mph - N/A   Overcast
3:42 AM 53.6 °F 51.8 °F 94% 30.03 in 10.0 mi NW 6.9 mph - N/A   Overcast
3:56 AM 54.0 °F 52.0 °F 93% 30.02 in 10.0 mi West 5.8 mph - N/A   Overcast
4:08 AM 53.6 °F 51.8 °F 94% 30.04 in 10.0 mi West 3.5 mph - N/A   Overcast
4:56 AM 54.0 °F 52.0 °F 93% 30.03 in 10.0 mi Calm Calm - N/A   Overcast
5:56 AM 54.0 °F 50.0 °F 86% 30.05 in 10.0 mi Calm Calm - N/A   Overcast
6:56 AM 54.0 °F 52.0 °F 93% 30.05 in 10.0 mi Calm Calm - N/A   Overcast
7:16 AM 53.6 °F 51.8 °F 94% 30.06 in 10.0 mi Calm Calm - N/A   Scattered Clouds
7:36 AM 51.8 °F 51.8 °F 100% 30.07 in 1.8 mi Calm Calm - N/A   Clear
7:48 AM 53.6 °F 51.8 °F 94% 30.08 in 3.0 mi Calm Calm - N/A   Clear
7:56 AM 53.1 °F 52.0 °F 96% 30.08 in 9.0 mi Calm Calm - N/A   Clear
8:56 AM 55.9 °F 51.1 °F 84% 30.08 in 10.0 mi Calm Calm - N/A   Clear
9:07 AM 55.4 °F 51.8 °F 88% 30.10 in 10.0 mi Calm Calm - N/A   Scattered Clouds
9:15 AM 55.4 °F 51.8 °F 88% 30.10 in 10.0 mi ESE 3.5 mph - N/A   Mostly Cloudy
9:56 AM 57.0 °F 50.0 °F 77% 30.11 in 10.0 mi Calm Calm - N/A   Mostly Cloudy
10:44 AM 59.0 °F 51.8 °F 77% 30.11 in 10.0 mi Calm Calm - N/A   Partly Cloudy
10:56 AM 60.8 °F 51.8 °F 72% 30.11 in 10.0 mi Calm Calm - N/A   Scattered Clouds
11:09 AM 60.8 °F 53.6 °F 77% 30.11 in 10.0 mi ENE 3.5 mph - N/A   Mostly Cloudy
11:40 AM 62.6 °F 53.6 °F 72% 30.10 in 10.0 mi Variable 4.6 mph - N/A   Scattered Clouds
11:56 AM 63.0 °F 54.0 °F 72% 30.09 in 10.0 mi Calm Calm - N/A   Partly Cloudy
12:56 PM 64.9 °F 52.0 °F 63% 30.09 in 10.0 mi Calm Calm - N/A   Partly Cloudy
1:10 PM 66.2 °F 53.6 °F 64% 30.11 in 10.0 mi Calm Calm - N/A   Mostly Cloudy
1:17 PM 64.4 °F 51.8 °F 64% 30.10 in 10.0 mi Calm Calm - N/A   Scattered Clouds
1:56 PM 66.9 °F 55.0 °F 66% 30.07 in 10.0 mi Calm Calm - N/A   Partly Cloudy
2:56 PM 66.9 °F 53.1 °F 61% 30.06 in 10.0 mi Variable 3.5 mph - N/A   Scattered Clouds
3:56 PM 69.1 °F 55.0 °F 61% 30.05 in 10.0 mi SW 4.6 mph - N/A   Mostly Cloudy
4:56 PM 69.1 °F 55.9 °F 63% 30.05 in 10.0 mi Calm Calm - N/A   Partly Cloudy
5:56 PM 66.9 °F 55.9 °F 68% 30.06 in 10.0 mi Calm Calm - N/A   Overcast
6:56 PM 64.0 °F 57.0 °F 78% 30.08 in 10.0 mi Calm Calm - N/A   Overcast
7:56 PM 63.0 °F 57.0 °F 81% 30.08 in 10.0 mi Calm Calm - N/A   Overcast
8:56 PM 63.0 °F 57.0 °F 81% 30.09 in 10.0 mi East 4.6 mph - N/A   Overcast
9:56 PM 62.1 °F 57.0 °F 84% 30.10 in 10.0 mi ENE 4.6 mph - N/A   Overcast
10:56 PM 62.1 °F 57.0 °F 84% 30.10 in 10.0 mi East 4.6 mph - N/A   Overcast
11:56 PM 62.1 °F 57.0 °F 84% 30.09 in 10.0 mi ESE 4.6 mph - N/A   Overcast